{"data":{"norad_id":39160,"epoch":"2026-09-20T04:12:51.713856Z","epoch_age_seconds":49895,"freshness":"FRESH","line1":"1 39160U 13021B   26263.17559854  .00000173  00000+0  41023-4 0  9993","line2":"2 39160  97.8987 312.8889 0001234  83.8211 276.3133 14.64747163714191","mean_motion":14.64747163,"eccentricity":0.0001234,"inclination_deg":97.8987,"raan_deg":312.8889,"arg_perigee_deg":83.8211,"mean_anomaly_deg":276.3133,"bstar":4.1023e-5,"rev_number":71419,"period_min":98.310482271267,"perigee_km":677.01653029919,"apogee_km":678.75795708254,"semimajor_km":7056.0242436909,"source":"CELESTRAK","updated_at":"2026-09-20T09:00:33.894911Z"}}